Temp
1 1 1 1 1 0 -1 0 -1 -1 0 -0 -1 -1 -2 -3 -2 -3 -3 -3 -3 -4 -4 -5 -5 -5 -5 -5 -6 -5 -5 -4 -5 -4 -4 -3 -2 -2 -2 -0 0 1 1 1 1 2 1
1 1 2 2 1 1 1 0 -1 -0 -0 -0 -1 -2 -2 -3 -2 -3 -3 -3 -4 -4 -4 -5 -5 -5 -5 -6 -6 -6 -5 -5 -5 -4 -4 -3 -2 -2 -1 -1 -0 1 1 1 1 1 1
1 2 1 1 1 1 1 1 -1 -0 0 0 -1 -1 -2 -2 -2 -2 -3 -3 -4 -4 -5 -5 -6 -6 -6 -7 -6 -6 -5 -5 -5 -4 -4 -3 -2 -2 -2 -1 -0 -0 1 0 0 0 2
2 1 2 2 2 1 1 1 0 0 1 1 -1 -1 -2 -2 -2 -2 -3 -3 -4 -4 -5 -5 -6 -6 -6 -6 -6 -6 -5 -5 -5 -4 -4 -3 -2 -2 -1 -1 -1 -0 -1 -1 -0 1 0
2 2 2 2 2 1 2 1 1 0 0 1 -1 -1 -1 -2 -2 -2 -3 -3 -5 -5 -5 -5 -6 -6 -7 -6 -6 -6 -6 -6 -5 -5 -4 -3 -3 -2 -1 -1 -1 -1 -1 -2 -1 0 -0
2 2 3 2 2 1 1 -0 0 1 1 1 -0 -1 -1 -2 -2 -2 -3 -4 -5 -5 -5 -5 -6 -6 -7 -7 -6 -5 -6 -5 -5 -5 -4 -4 -3 -2 -2 -1 -1 -1 -1 -1 -1 0 1
2 2 2 2 1 2 2 1 1 2 1 0 -0 -0 -1 -2 -2 -2 -3 -4 -5 -6 -6 -6 -6 -6 -6 -6 -6 -6 -5 -6 -5 -5 -5 -4 -3 -2 -1 -0 0 0 1 0 1 -0 0
2 2 2 2 2 2 1 1 1 1 2 1 -0 -0 -1 -2 -2 -2 -3 -4 -5 -6 -6 -6 -6 -5 -6 -6 -6 -6 -5 -5 -5 -4 -4 -4 -3 -2 -2 -1 0 1 1 -0 1 0 1
2 2 2 2 2 2 0 1 1 2 2 1 0 -0 -1 -2 -2 -3 -3 -4 -5 -6 -6 -6 -5 -5 -5 -6 -6 -6 -5 -5 -4 -4 -4 -3 -3 -2 -2 -1 -1 -1 1 -0 1 1 -0
2 1 3 2 1 2 0 1 1 2 2 1 0 -0 -1 -2 -2 -2 -3 -5 -5 -6 -6 -6 -6 -5 -5 -5 -5 -6 -5 -4 -4 -4 -4 -4 -2 -2 -1 -2 0 2 3 2 2 1 1
2 1 2 3 1 1 1 2 1 2 2 1 0 -0 -1 -2 -2 -2 -3 -4 -5 -5 -4 -6 -5 -5 -6 -6 -5 -5 -5 -5 -4 -4 -3 -3 -2 -2 -1 -0 1 2 1 -1 1 1 2
1 1 1 2 1 1 1 1 1 2 2 0 0 -0 -1 -2 -2 -3 -3 -4 -5 -5 -5 -5 -5 -6 -6 -5 -5 -5 -5 -4 -4 -3 -4 -4 -3 -2 -2 -1 -1 1 1 1 1 2 -0
1 1 0 2 1 1 1 2 1 1 2 0 -0 -0 -1 -2 -2 -3 -4 -4 -5 -4 -6 -6 -6 -6 -5 -4 -5 -4 -4 -4 -4 -4 -4 -3 -3 -2 -1 -1 0 0 1 -0 -1 -2 -2
0 0 0 2 2 1 1 1 1 1 1 0 -0 -0 -2 -1 -2 -3 -4 -4 -4 -5 -6 -6 -6 -5 -5 -5 -4 -5 -4 -3 -3 -4 -3 -3 -4 -2 -2 -1 -1 -0 1 1 0 -2 -0
0 1 0 1 1 1 0 1 1 1 1 0 -0 -1 -1 -2 -2 -3 -4 -4 -4 -4 -5 -5 -5 -5 -4 -4 -4 -4 -4 -4 -4 -3 -3 -3 -3 -2 -2 -2 -1 -0 0 -0 1 2 1
-0 1 0 1 1 1 0 2 1 1 1 0 -0 -1 -1 -2 -2 -3 -4 -4 -4 -4 -4 -5 -4 -4 -3 -4 -4 -4 -4 -4 -3 -3 -2 -2 -3 -3 -2 -2 -1 -1 -1 -0 1 -2 2
-0 0 0 0 1 1 1 1 1 1 1 -0 -0 -1 -2 -2 -3 -3 -4 -4 -4 -4 -4 -4 -4 -4 -3 -3 -3 -3 -4 -4 -3 -3 -2 -2 -2 -3 -2 -2 -2 -1 -1 -0 0 1 -1
-1 0 0 0 0 1 1 1 1 1 1 -1 -1 -1 -2 -2 -3 -3 -4 -4 -4 -4 -5 -5 -4 -4 -3 -3 -3 -3 -3 -3 -3 -2 -2 -2 -3 -3 -3 -2 -2 -2 -1 -0 0 -0 0
-1 -0 -0 -0 0 -0 0 1 1 1 1 -1 -1 -1 -2 -2 -4 -4 -4 -4 -4 -4 -4 -4 -4 -3 -3 -3 -3 -3 -3 -3 -3 -3 -3 -3 -3 -3 -3 -3 -3 -2 -1 -1 -0 0 -0
-2 -0 -0 -0 0 0 0 1 1 1 0 -1 -1 -1 -2 -2 -4 -4 -4 -4 -3 -4 -4 -4 -4 -4 -4 -3 -3 -4 -4 -4 -3 -3 -3 -2 -2 -2 -2 -1 -1 -1 -1 -1 -1 -1 -1
-3 0 -0 -0 1 -0 0 1 1 1 0 -1 -1 -1 -1 -2 -3 -4 -4 -4 -3 -3 -3 -4 -3 -3 -3 -3 -4 -4 -3 -4 -3 -3 -3 -2 -3 -2 -3 -2 -2 -2 -2 -1 -2 -1 -2
-2 -0 -0 -1 -0 -0 0 1 1 1 0 -0 -1 -1 -2 -2 -3 -3 -4 -4 -3 -3 -4 -3 -3 -3 -3 -3 -4 -4 -3 -4 -4 -3 -3 -3 -3 -2 -2 -2 -2 -2 -2 -2 -2 -2 -2
-1 -1 -1 -1 -1 -0 -0 -0 1 1 1 -0 -1 -2 -2 -2 -3 -4 -4 -4 -4 -3 -3 -3 -4 -3 -3 -3 -3 -3 -3 -4 -4 -4 -4 -3 -3 -3 -2 -2 -2 -2 -2 -2 -2 -2 -2
-2 -1 -1 -1 -0 -1 -0 1 1 1 1 -1 -1 -2 -2 -2 -4 -4 -4 -4 -4 -3 -3 -3 -3 -4 -3 -3 -3 -4 -4 -4 -4 -4 -4 -4 -3 -3 -3 -3 -5 -2 -2 -2 -2 -3 -3
-3 -2 -1 -1 -0 -0 0 1 1 1 1 -1 -1 -1 -2 -3 -5 -5 -4 -4 -4 -4 -4 -3 -3 -3 -4 -4 -4 -4 -4 -4 -4 -4 -4 -4 -4 -4 -4 -3 -2 -3 -3 -3 -3 -4 -3
-4 -0 -2 -1 -1 -0 -1 -0 1 1 0 -1 -1 -2 -2 -2 -4 -4 -4 -4 -4 -4 -4 -4 -4 -4 -4 -4 -3 -4 -3 -3 -4 -4 -4 -4 -4 -4 -4 -3 -2 -4 -3 -3 -3 -4 -3
-2 0 -1 -1 -1 -1 -2 -1 1 1 -0 -1 -1 -2 -2 -2 -3 -3 -5 -5 -5 -5 -5 -5 -4 -4 -4 -4 -4 -3 -3 -3 -4 -4 -4 -4 -4 -4 -4 -3 -3 -3 -4 -4 -4 -4 -4
-2 -3 -1 -2 -1 -1 -1 -1 1 0 -1 -1 -1 -2 -1 -2 -3 -3 -3 -4 -5 -4 -4 -4 -5 -4 -4 -4 -4 -4 -4 -4 -3 -4 -4 -4 -4 -4 -4 -4 -4 -4 -4 -4 -4 -5 -4
-2 -1 -2 -2 -2 -1 -1 -1 0 -0 -1 -1 -1 -1 -2 -3 -2 -4 -5 -5 -5 -4 -4 -4 -4 -4 -4 -4 -4 -4 -4 -4 -4 -4 -4 -4 -4 -4 -4 -4 -4 -5 -5 -5 -5 -4 -4
Height
3129 3125 3123 3119 3113 3108 3103 3099 3093 3086 3080 3073 3067 3060 3056 3052 3049 3046 3043 3041 3039 3037 3034 3032 3031 3030 3029 3029 3028 3027 3028 3030 3031 3033 3034 3045 3052 3057 3061 3068 3074 3078 3083 3090 3094 3100 3105
3127 3123 3120 3117 3112 3106 3102 3096 3091 3084 3078 3070 3064 3058 3053 3050 3045 3043 3040 3038 3036 3034 3032 3030 3029 3028 3027 3026 3025 3024 3026 3028 3029 3032 3034 3041 3050 3058 3062 3067 3072 3077 3084 3090 3093 3097 3102
3124 3121 3118 3114 3110 3105 3100 3095 3088 3081 3075 3068 3062 3056 3051 3046 3043 3040 3038 3035 3033 3031 3029 3028 3027 3026 3025 3024 3023 3022 3023 3025 3026 3029 3032 3039 3045 3049 3057 3066 3071 3077 3083 3092 3090 3095 3101
3121 3118 3115 3111 3107 3102 3098 3093 3086 3080 3073 3065 3060 3054 3049 3043 3040 3037 3035 3032 3031 3029 3027 3026 3025 3024 3022 3021 3021 3020 3020 3022 3024 3027 3032 3038 3042 3048 3055 3066 3069 3073 3078 3081 3088 3093 3098
3116 3115 3112 3107 3104 3099 3095 3090 3084 3078 3070 3063 3057 3052 3046 3041 3038 3035 3033 3030 3029 3027 3025 3024 3024 3023 3023 3020 3019 3017 3018 3020 3023 3025 3030 3036 3042 3048 3054 3060 3065 3069 3072 3080 3087 3090 3091
3111 3110 3109 3104 3099 3096 3091 3086 3080 3074 3067 3060 3055 3049 3044 3039 3036 3033 3030 3028 3027 3026 3025 3024 3023 3025 3022 3019 3015 3012 3015 3019 3022 3025 3027 3033 3031 3044 3052 3057 3061 3066 3073 3082 3084 3087 3093
3105 3105 3103 3100 3096 3093 3089 3084 3077 3070 3063 3057 3051 3045 3041 3037 3034 3031 3029 3028 3029 3028 3025 3024 3024 3022 3020 3018 3016 3015 3016 3018 3022 3026 3026 3031 3035 3040 3047 3055 3064 3068 3074 3080 3088 3088 3093
3098 3098 3097 3095 3092 3088 3084 3079 3072 3067 3060 3054 3048 3043 3038 3036 3033 3029 3028 3026 3025 3027 3026 3024 3024 3021 3020 3018 3017 3016 3017 3020 3021 3024 3027 3035 3038 3045 3051 3059 3065 3070 3073 3078 3085 3088 3091
3091 3090 3091 3089 3086 3083 3079 3075 3069 3063 3057 3051 3046 3040 3037 3034 3031 3029 3028 3026 3025 3025 3027 3026 3023 3022 3021 3020 3017 3017 3019 3020 3022 3025 3029 3034 3040 3041 3050 3059 3063 3068 3075 3078 3080 3084 3088
3083 3083 3083 3083 3081 3078 3074 3071 3066 3060 3054 3049 3043 3039 3036 3033 3032 3029 3028 3025 3025 3026 3027 3029 3025 3024 3023 3020 3019 3017 3018 3020 3021 3026 3030 3034 3040 3045 3052 3058 3063 3068 3074 3075 3075 3081 3086
3075 3075 3074 3076 3075 3073 3070 3066 3062 3057 3052 3046 3041 3037 3035 3030 3030 3029 3027 3025 3025 3027 3026 3029 3026 3025 3024 3024 3022 3021 3020 3022 3026 3029 3036 3040 3043 3048 3051 3058 3063 3066 3070 3073 3075 3082 3086
3065 3065 3066 3068 3068 3066 3065 3061 3059 3054 3048 3044 3039 3036 3033 3030 3029 3029 3026 3026 3027 3028 3029 3029 3027 3027 3026 3026 3025 3022 3023 3029 3032 3037 3040 3041 3045 3050 3053 3061 3063 3065 3069 3072 3077 3081 3085
3053 3054 3057 3059 3062 3060 3059 3057 3054 3050 3046 3041 3037 3035 3031 3029 3028 3028 3026 3027 3029 3027 3030 3031 3029 3029 3028 3026 3028 3027 3026 3030 3035 3040 3041 3044 3045 3051 3055 3060 3064 3067 3070 3078 3084 3086 3086
3039 3043 3048 3049 3054 3053 3053 3051 3050 3047 3043 3039 3036 3033 3030 3029 3027 3027 3026 3028 3028 3029 3029 3029 3031 3031 3032 3032 3031 3030 3033 3034 3035 3039 3042 3045 3053 3054 3059 3064 3065 3069 3072 3075 3078 3082 3083
3023 3031 3037 3041 3042 3045 3045 3045 3045 3043 3039 3035 3034 3032 3029 3027 3026 3027 3027 3027 3028 3028 3030 3031 3032 3033 3034 3034 3035 3036 3037 3040 3041 3043 3045 3047 3052 3056 3059 3062 3068 3070 3072 3075 3076 3078 3081
3010 3019 3025 3032 3035 3038 3038 3039 3039 3039 3035 3033 3032 3030 3028 3027 3026 3027 3027 3028 3028 3028 3029 3033 3034 3035 3035 3036 3037 3037 3039 3041 3042 3044 3048 3052 3053 3057 3061 3065 3068 3071 3075 3079 3078 3081 3079
2998 3006 3015 3022 3026 3028 3031 3034 3034 3034 3031 3030 3028 3028 3027 3026 3027 3028 3027 3029 3029 3029 3031 3033 3033 3035 3037 3038 3040 3040 3041 3043 3044 3046 3050 3051 3055 3061 3063 3066 3069 3072 3073 3076 3078 3079 3080
2983 2995 3006 3011 3017 3020 3023 3027 3029 3028 3027 3026 3025 3026 3026 3025 3028 3026 3028 3029 3030 3032 3032 3033 3035 3036 3039 3040 3040 3041 3041 3043 3045 3048 3051 3052 3055 3059 3063 3065 3068 3070 3073 3075 3077 3080 3080
2969 2981 2991 3002 3008 3011 3017 3021 3023 3023 3023 3022 3022 3023 3023 3025 3026 3027 3028 3030 3031 3032 3032 3033 3034 3037 3039 3041 3043 3042 3043 3044 3046 3047 3050 3054 3057 3060 3064 3068 3067 3069 3071 3073 3076 3078 3079
2958 2970 2982 2992 3000 3004 3010 3015 3017 3018 3018 3018 3020 3020 3021 3023 3024 3026 3028 3030 3031 3032 3033 3033 3036 3037 3040 3042 3042 3043 3043 3045 3048 3049 3052 3055 3057 3058 3060 3061 3063 3066 3068 3071 3074 3076 3077
2955 2966 2979 2985 2992 2996 3003 3008 3012 3013 3013 3015 3016 3016 3017 3019 3021 3023 3027 3030 3031 3033 3033 3034 3037 3038 3040 3041 3042 3044 3044 3046 3048 3051 3053 3054 3056 3058 3059 3061 3062 3064 3065 3068 3070 3072 3074
2949 2956 2972 2978 2984 2990 2995 2999 3005 3007 3008 3010 3012 3014 3014 3017 3019 3021 3025 3029 3031 3032 3033 3035 3037 3037 3039 3041 3043 3043 3043 3046 3049 3051 3053 3054 3055 3057 3059 3060 3061 3063 3063 3065 3067 3068 3070
2936 2941 2967 2973 2980 2983 2989 2995 3000 3002 3005 3006 3008 3011 3013 3015 3017 3022 3025 3027 3029 3031 3033 3034 3037 3037 3039 3041 3043 3043 3044 3046 3047 3049 3051 3054 3056 3058 3059 3059 3059 3060 3059 3060 3062 3064 3066
2930 2945 2959 2968 2973 2979 2985 2991 2995 2997 3000 3002 3005 3008 3010 3013 3016 3020 3022 3026 3029 3030 3032 3034 3036 3037 3039 3041 3043 3045 3047 3047 3048 3049 3050 3052 3054 3056 3057 3058 3060 3057 3056 3057 3059 3060 3060
2925 2935 2955 2961 2967 2972 2978 2987 2991 2993 2995 2999 3002 3005 3007 3010 3014 3016 3020 3023 3028 3029 3031 3034 3036 3038 3039 3041 3042 3045 3048 3050 3051 3051 3051 3052 3053 3055 3056 3056 3056 3054 3055 3057 3057 3057 3057
2921 2927 2938 2953 2962 2968 2975 2982 2986 2989 2992 2995 2999 3001 3004 3006 3009 3014 3018 3022 3025 3028 3031 3032 3035 3037 3040 3042 3043 3045 3047 3048 3048 3049 3051 3053 3053 3056 3056 3056 3053 3052 3054 3055 3055 3054 3054
2921 2931 2941 2948 2958 2964 2971 2978 2982 2985 2988 2992 2995 2997 3001 3005 3007 3011 3015 3019 3022 3026 3029 3031 3033 3036 3039 3042 3044 3045 3048 3049 3050 3050 3049 3050 3052 3054 3056 3055 3053 3053 3053 3053 3055 3057 3052
2916 2929 2939 2945 2953 2960 2966 2974 2979 2982 2985 2990 2993 2995 3000 3003 3005 3008 3013 3017 3021 3024 3027 3030 3033 3036 3039 3041 3043 3045 3047 3048 3050 3050 3050 3050 3051 3051 3051 3052 3053 3051 3051 3053 3051 3049 3048
2910 2920 2932 2942 2949 2955 2960 2970 2975 2979 2984 2987 2990 2993 2998 3002 3005 3009 3013 3017 3021 3024 3027 3028 3031 3033 3036 3039 3042 3043 3044 3045 3047 3049 3048 3050 3049 3051 3053 3051 3050 3050 3049 3049 3046 3046 3045
Wind_Speed
26 28 32 36 36 39 39 41 48 52 50 44 37 31 25 22 22 20 17 18 18 16 14 12 10 10 12 9 10 13 11 10 22 24 23 32 31 32 29 46 34 27 34 22 19 30 22
28 26 27 32 36 38 42 44 49 52 51 43 37 31 25 22 22 18 15 17 18 14 14 11 11 11 12 7 14 18 12 11 16 26 27 31 32 27 29 22 42 36 25 29 23 15 24
30 23 24 28 33 35 40 40 46 51 50 42 35 29 25 23 22 17 13 16 16 13 12 10 10 12 12 10 12 18 13 13 11 20 26 33 33 29 20 25 29 33 34 33 26 25 20
30 26 27 32 35 32 38 41 43 52 47 42 33 28 25 23 20 14 12 15 13 11 11 9 9 10 10 9 10 14 14 13 11 17 29 34 28 33 26 27 21 21 32 26 15 23 29
27 30 28 31 35 35 33 40 44 51 46 41 31 28 25 23 17 13 13 13 10 10 8 6 7 7 3 14 10 13 12 12 11 12 30 37 32 35 26 29 20 17 25 30 16 30 12
33 31 28 34 32 32 32 36 39 46 42 39 30 27 24 21 15 11 13 10 8 7 6 6 4 5 6 14 15 3 10 12 12 11 20 43 14 39 29 26 28 20 18 26 20 16 27
31 29 28 34 29 30 33 32 44 41 38 35 29 26 22 18 13 11 11 8 5 3 6 3 5 6 10 13 6 4 9 13 11 16 20 38 25 40 36 35 25 20 20 18 16 14 23
31 30 32 32 31 30 29 36 39 41 37 33 28 25 19 15 11 11 9 7 2 2 7 5 5 5 8 7 7 2 10 10 17 18 17 17 26 31 29 29 23 20 18 19 20 16 18
35 30 32 31 29 27 29 36 38 37 36 31 26 22 17 13 9 9 9 3 2 2 3 7 6 7 6 7 10 5 4 10 17 19 17 16 25 19 24 25 19 22 29 24 21 15 13
35 35 32 35 32 29 28 34 37 34 33 28 24 20 15 12 9 8 6 2 1 3 2 6 9 4 4 7 7 8 2 13 20 16 10 8 30 22 21 19 16 16 25 22 16 16 7
36 36 32 36 35 27 23 34 34 32 31 26 21 18 14 10 8 7 4 1 3 5 1 6 4 4 8 10 7 7 6 24 18 15 8 7 18 23 20 18 13 12 9 18 15 11 9
40 36 33 33 31 26 24 32 32 30 29 23 19 16 12 9 7 5 2 5 5 0 3 4 3 5 9 6 7 10 14 14 11 12 7 7 27 19 19 16 11 17 18 12 10 5 3
44 38 38 32 34 23 28 27 30 30 26 21 16 14 10 7 6 2 4 4 2 4 3 2 2 7 5 5 10 9 12 17 7 9 7 7 16 19 21 13 12 15 18 5 3 0 2
43 44 39 30 34 25 29 23 29 29 23 18 14 13 9 6 4 3 7 8 3 3 3 8 5 8 4 5 7 7 9 10 11 1 10 6 6 15 20 13 15 20 15 5 4 4 4
42 44 38 34 37 28 25 22 28 27 21 16 12 9 7 4 1 5 8 6 1 2 8 8 7 5 5 5 6 6 9 8 8 6 4 7 6 16 16 19 17 20 16 3 2 2 7
50 36 40 34 36 29 19 29 27 24 18 14 10 6 4 2 4 6 8 4 2 6 11 7 3 3 3 6 4 4 3 10 7 11 7 8 8 18 18 18 18 10 9 5 2 2 2
46 35 43 33 37 28 31 26 24 21 16 11 8 4 2 1 6 7 6 5 4 8 8 7 7 6 7 5 4 3 3 9 9 12 7 12 5 12 15 11 15 14 14 6 4 0 0
50 31 44 34 35 28 25 25 22 19 14 10 6 4 1 4 9 8 9 9 8 8 11 9 11 9 5 4 5 3 5 6 9 10 9 6 6 9 17 9 16 17 10 10 5 3 1
56 35 39 34 38 29 25 25 20 18 12 8 6 3 4 6 9 6 8 8 8 4 2 7 8 11 11 6 2 6 3 8 10 16 10 8 4 7 6 8 11 14 14 16 14 10 5
53 37 41 32 35 24 27 22 20 15 10 8 6 5 7 10 13 12 8 5 6 8 8 9 9 11 8 3 3 5 5 10 13 10 10 6 9 1 4 2 9 23 21 17 13 6 11
37 33 38 32 31 35 26 23 18 14 10 9 7 6 6 11 16 18 13 9 7 6 7 10 7 7 5 4 6 6 5 11 13 9 9 7 7 6 4 4 7 7 13 20 22 25 11
32 39 33 36 39 24 26 22 17 13 11 10 11 8 9 14 16 16 13 13 10 9 10 5 6 6 7 7 5 6 6 6 5 11 9 7 6 7 4 4 3 4 8 11 17 19 17
33 34 35 35 37 27 26 16 14 12 11 10 9 9 10 13 18 16 14 15 14 12 10 11 11 5 5 4 4 4 6 8 6 5 9 6 5 4 2 5 8 8 11 14 13 16 15
31 31 31 39 30 23 23 17 14 12 11 10 12 12 14 16 21 18 17 15 15 14 11 11 11 7 6 5 7 7 7 4 4 5 8 8 7 7 1 2 1 3 4 5 13 14 13
30 33 34 37 25 29 27 19 14 13 12 12 13 14 16 15 21 19 18 19 17 15 11 10 9 7 8 9 10 6 5 3 0 4 7 7 5 3 4 7 3 4 6 8 9 10 11
31 51 41 28 27 27 30 16 14 14 12 14 12 15 18 20 24 20 20 18 17 16 12 10 9 9 10 10 6 4 4 3 4 2 4 7 9 5 1 3 2 10 6 6 7 11 13
41 30 29 17 31 26 25 15 15 14 14 14 15 18 17 17 17 22 24 24 21 17 13 12 11 10 13 10 6 3 2 3 2 3 3 5 4 8 7 5 4 5 9 6 6 4 5
36 24 36 17 30 30 29 20 17 15 15 15 15 18 17 16 19 22 19 22 18 18 14 13 12 12 12 8 6 4 3 5 3 3 3 3 1 3 5 4 5 7 8 8 8 11 15
40 41 27 26 31 27 32 20 17 16 15 17 17 17 19 18 18 20 19 19 18 17 15 14 12 13 12 10 8 6 5 4 6 2 9 7 9 5 4 5 7 8 10 13 19 22 25
Wind_Direction
327 328 330 334 339 345 343 341 339 342 342 342 339 340 331 324 319 310 307 313 305 307 311 303 300 308 315 291 262 256 261 241 226 222 189 187 192 190 199 202 199 199 197 206 208 213 187
321 322 331 328 339 331 335 340 338 336 339 342 339 340 332 326 320 309 306 314 306 307 309 303 295 301 310 280 258 267 259 253 229 223 205 181 188 189 200 208 206 209 194 201 181 183 182
315 313 319 322 333 331 336 327 331 332 336 340 339 338 332 326 320 312 311 316 305 304 312 305 295 297 306 283 261 265 267 248 241 216 195 182 183 178 186 199 213 208 203 202 207 206 192
309 310 317 322 313 329 330 321 322 327 335 339 338 337 331 325 319 312 314 315 305 304 316 311 304 301 313 321 288 274 254 248 238 221 197 190 186 177 169 189 194 210 219 223 215 200 213
301 308 303 314 315 320 324 320 315 320 330 338 337 336 330 324 320 317 321 315 305 306 325 326 320 313 304 312 299 275 250 236 224 222 192 191 190 186 158 183 182 204 212 220 254 212 200
300 302 300 309 309 318 322 317 313 320 331 336 336 336 329 325 321 317 325 317 308 312 341 342 1 332 297 308 327 242 219 207 194 206 206 193 191 176 182 182 188 177 186 226 227 220 215
289 299 288 303 309 311 311 314 311 329 332 334 338 338 331 327 324 325 328 313 300 338 352 356 335 324 312 325 329 334 169 169 191 204 204 191 188 181 180 188 192 192 196 200 241 198 195
280 288 288 298 301 303 311 309 321 327 333 334 340 338 334 330 329 332 330 312 282 302 343 353 347 350 354 344 344 1 181 202 186 184 196 190 192 201 189 189 188 192 194 194 192 189 197
277 277 281 290 291 298 314 305 322 327 332 334 340 341 337 333 334 335 335 323 268 205 37 25 17 24 10 16 18 63 212 228 184 164 165 167 174 190 169 182 181 188 205 191 178 167 178
275 271 276 280 286 292 309 302 322 326 331 335 341 343 340 337 337 343 343 330 215 161 138 9 3 26 19 343 50 29 248 150 162 158 151 116 158 165 159 175 172 174 190 187 168 168 172
267 267 268 273 288 282 305 300 320 326 330 335 342 346 342 340 336 343 2 103 149 140 282 2 26 50 53 41 33 36 93 140 138 134 134 148 182 160 145 172 148 159 161 156 149 162 133
260 262 261 267 274 284 292 301 319 325 330 335 341 348 345 341 340 349 93 120 119 341 77 34 99 61 34 42 64 6 132 139 123 155 161 147 157 146 141 156 159 160 134 118 139 148 297
252 255 257 258 269 273 283 300 319 323 328 333 339 346 347 336 342 341 142 143 31 20 119 66 24 77 33 74 75 85 128 146 135 129 129 193 151 142 151 167 148 157 158 99 65 335 220
244 252 255 252 259 267 274 291 306 319 324 331 336 346 347 331 332 164 143 88 49 77 110 105 106 78 66 98 91 67 121 138 149 114 99 124 162 170 152 153 157 161 140 141 164 172 169
228 246 248 246 251 261 271 283 299 315 319 328 332 348 349 354 186 153 124 72 127 170 111 132 108 93 62 76 116 78 123 125 154 151 84 86 117 162 155 159 160 174 224 226 48 316 127
223 237 243 241 245 261 257 270 291 308 313 319 328 345 358 12 151 160 114 118 91 131 131 135 98 119 120 144 96 83 72 156 192 154 144 104 114 147 166 166 178 176 202 173 187 111 169
215 229 240 233 240 253 251 268 285 301 306 306 319 314 13 206 160 153 122 117 95 136 130 138 153 108 126 109 123 62 63 158 174 176 164 132 124 172 185 186 185 181 189 160 160 15 355
216 220 238 229 241 254 244 255 280 294 297 293 296 307 158 175 157 140 124 131 113 110 100 120 137 124 121 122 95 68 112 124 151 177 144 135 141 129 187 171 184 182 194 176 150 234 242
218 221 223 228 228 243 242 250 273 282 284 276 272 246 180 187 152 137 155 143 132 112 95 82 116 144 125 135 111 121 181 153 134 144 146 118 158 116 169 215 219 208 194 198 222 251 195
220 216 216 216 221 244 238 246 269 268 268 259 249 218 188 194 168 155 151 150 146 140 122 132 120 110 102 94 119 152 144 156 168 158 144 127 166 178 151 133 227 223 214 213 204 214 207
224 204 218 211 228 232 233 234 258 253 252 248 232 211 191 200 182 158 167 158 154 137 139 124 126 127 115 126 120 150 161 168 179 172 161 128 175 186 165 157 193 205 223 216 223 230 228
230 192 213 213 233 240 228 231 243 239 240 233 229 214 199 171 178 165 162 156 184 178 138 156 152 157 143 152 90 166 157 174 175 203 200 181 174 182 217 211 207 201 184 206 227 241 250
208 183 218 216 232 223 224 223 233 231 236 233 222 207 198 186 180 164 182 182 187 168 167 166 125 169 167 154 188 162 143 153 172 209 195 199 215 201 201 268 265 275 248 236 222 224 232
189 179 200 219 209 228 200 222 233 228 231 224 216 208 198 186 178 181 195 196 182 185 184 174 174 167 139 134 134 122 123 113 125 154 178 197 201 194 236 186 283 208 220 212 209 217 222
172 178 216 213 224 213 223 227 228 226 224 217 215 202 195 187 181 194 200 193 185 192 186 190 192 185 156 146 112 97 95 80 46 170 165 155 133 159 194 222 214 231 196 167 172 223 234
195 186 197 210 210 211 204 213 220 222 218 211 210 199 200 190 191 198 190 184 192 192 185 186 181 181 174 163 147 154 167 162 171 191 204 200 186 195 210 282 300 194 222 226 237 242 259
194 197 191 198 208 212 205 205 214 214 210 209 205 199 197 198 190 188 186 185 182 185 183 181 179 173 172 178 172 192 153 191 174 209 191 200 216 227 240 265 273 269 259 259 222 252 260
182 195 205 218 211 207 206 204 207 206 207 209 200 192 191 185 185 187 191 188 189 193 181 178 174 176 178 166 192 160 158 190 187 182 190 211 225 222 217 234 260 270 269 247 251 261 279
181 188 191 213 219 209 197 194 199 198 203 199 188 180 183 181 179 178 185 187 191 194 200 182 183 186 184 181 191 192 184 200 197 258 222 208 212 201 223 240 263 290 287 277 271 279 287